Weather History for Rexburg, ID

Change the Weather History Date:

Tuesday, April 30, 2013

  Actual Average Record
Temperature  
Mean Temperature 38 °F 48 °F  
Max Temperature 48 °F 61 °F 73 °F (2007)
Min Temperature 27 °F 34 °F 26 °F (2014)
Degree Days  
Heating Degree Days 27 17  
Month to date heating degree days 684 637  
Since 1 July heating degree days 7344 7565  
Cooling Degree Days 0 0  
Month to date cooling degree days 0 0  
Year to date cooling degree days 0 0  
Moisture  
Dew Point 16 °F    
Average Humidity 45    
Maximum Humidity 69    
Minimum Humidity 21    
Precipitation  
Precipitation T in 0.05 in 0.32 in (1991)
Month to date precipitation 0.57 1.48  
Year to date precipitation 3.01 4.11  
Sea Level Pressure  
Sea Level Pressure 29.90 in    
Wind  
Wind Speed 7 mph (North)    
Max Wind Speed 18 mph    
Max Gust Speed 25 mph    
Visibility 10 miles    
Events      
T = Trace of Precipitation, MM = Missing Value Source: NWS Daily Summary

Daily Weather History Graph

Daily Weather History Graph

Search for Another Location

Airport:

Trip Planner

Search our weather history database for the weather conditions in past years. The results will help you decide how hot, cold, wet, or windy it might be!

Date:

Astronomy

Apr. 30, 2013 Rise Set
Actual Time 6:20 AM MDT 8:29 PM MDT
Civil Twilight 5:48 AM MDT 9:00 PM MDT
Nautical Twilight 5:09 AM MDT 9:39 PM MDT
Astronomical Twilight 4:27 AM MDT 10:23 PM MDT
Moon 12:57 AM MDT (4/30) 10:51 AM MDT (4/30)
Length of Visible Light 15h 12m
Length of Day
14h 09m
Waning Gibbous, 69% of the Moon is Illuminated
Apr 30
Waning Gibbous
May 2
Last Quarter
May 9
New
May 17
First Quarter
May 24
Full

Hourly Weather History & Observations

Time (MDT) Temp. Windchill Dew Point Humidity Pressure Visibility Wind Dir Wind Speed Gust Speed Precip Events Conditions
12:53 AM 39.0 °F 33.4 °F 21.9 °F 50% 29.73 in 10.0 mi NE 8.1 mph - N/A   Clear
1:53 AM 37.0 °F 34.5 °F 21.0 °F 52% 29.74 in 10.0 mi NNE 3.5 mph - N/A   Clear
2:53 AM 34.0 °F 28.8 °F 21.9 °F 61% 29.76 in 10.0 mi NNE 5.8 mph - N/A   Clear
3:53 AM 35.1 °F 27.4 °F 17.1 °F 48% 29.77 in 10.0 mi North 10.4 mph - N/A   Clear
4:53 AM 30.9 °F 27.5 °F 19.0 °F 61% 29.80 in 10.0 mi East 3.5 mph - N/A   Clear
5:53 AM 28.9 °F 23.9 °F 19.9 °F 69% 29.81 in 10.0 mi NE 4.6 mph - N/A   Clear
6:53 AM 28.0 °F 22.8 °F 19.0 °F 69% 29.83 in 10.0 mi East 4.6 mph - N/A   Clear
7:53 AM 30.9 °F 26.2 °F 18.0 °F 59% 29.86 in 10.0 mi NE 4.6 mph - N/A   Overcast
8:53 AM 37.9 °F 31.5 °F 12.0 °F 35% 29.86 in 10.0 mi North 9.2 mph - N/A   Overcast
9:53 AM 39.9 °F 34.5 °F 10.0 °F 29% 29.88 in 10.0 mi North 8.1 mph - N/A   Overcast
10:53 AM 41.0 °F 38.0 °F 12.0 °F 31% 29.89 in 10.0 mi Variable 4.6 mph - N/A   Overcast
11:53 AM 41.0 °F 38.0 °F 10.0 °F 28% 29.91 in 10.0 mi North 4.6 mph - N/A   Overcast
12:53 PM 43.0 °F - 10.9 °F 27% 29.91 in 10.0 mi Calm Calm - N/A   Overcast
1:53 PM 43.0 °F 38.2 °F 10.0 °F 26% 29.91 in 10.0 mi WNW 8.1 mph - N/A   Mostly Cloudy
2:53 PM 45.0 °F 43.5 °F 10.0 °F 24% 29.91 in 10.0 mi WSW 3.5 mph - N/A   Mostly Cloudy
3:53 PM 46.0 °F 42.5 °F 10.9 °F 24% 29.91 in 10.0 mi West 6.9 mph - N/A   Mostly Cloudy
4:53 PM 46.0 °F 41.4 °F 9.0 °F 22% 29.92 in 10.0 mi West 9.2 mph - N/A   Overcast
6:32 PM 42.8 °F 37.5 °F 19.4 °F 39% 29.95 in 10.0 mi WNW 9.2 mph 19.6 mph N/A   Scattered Clouds
6:53 PM 41.0 °F 35.2 °F 19.0 °F 41% 30.01 in 10.0 mi NW 9.2 mph - N/A   Mostly Cloudy
7:53 PM 37.9 °F 31.5 °F 21.9 °F 53% 30.04 in 10.0 mi North 9.2 mph 21.9 mph N/A   Overcast
8:53 PM 37.0 °F 31.0 °F 21.9 °F 54% 30.04 in 10.0 mi North 8.1 mph 17.3 mph N/A   Overcast
9:53 PM 36.0 °F 30.3 °F 21.0 °F 55% 30.07 in 10.0 mi NNW 6.9 mph - N/A   Overcast
10:53 PM 37.0 °F 31.0 °F 18.0 °F 46% 30.09 in 10.0 mi NNE 8.1 mph 21.9 mph N/A   Overcast
11:53 PM 37.0 °F 28.9 °F 16.0 °F 42% 30.10 in 10.0 mi NE 12.7 mph 20.7 mph 0.00 in   Overcast